Hourly Weather Roundup
Issued by NWS Central Illinois

Home | Current Version | Previous Version | Text Only | Print | Product List | Glossary On
Versions: 1 2 3 4 5 6 7 8 9 10 11 12 13 14 15 16 17 18 19 20 21 22 23 24 25 26 27 28 29 30 31 32 33 34 35 36 37 38 39 40 41 42 43 44 45 46 47 48 49 50
000
NZUS43 KILX 241510
HWRILX

AREA WEATHER ROUNDUP
NATIONAL WEATHER SERVICE, LINCOLN IL
900 AM CST FRI FEB 24 2017


CITY           SKY/WX    TMP DP  RH WIND       PRES   REMARKS
BLOOMINGTON    CLOUDY    60  56  86 S24G30    29.43S
CHAMPAIGN      CLOUDY    63  55  75 S25G31    29.47F
DECATUR        PTSUNNY   63  55  75 S20G28    29.47S
EFFINGHAM      MOSUNNY   65  57  75 S16G24    29.54R
FLORA          MOSUNNY   67  57  70 S23       29.55R
GALESBURG      CLOUDY    43  43 100 CALM      29.43R FOG
JACKSONVILLE   CLOUDY    60  55  82 SW13      29.44R
LACON          CLOUDY    47  47 100 CALM      29.42S FOG
LAWRENCEVILLE  MOSUNNY   66  56  70 S26G33    29.57F
LITCHFIELD     MOSUNNY   60  56  88 S20       29.48S
$$


CITY           SKY/WX    TMP DP  RH WIND       PRES   REMARKS
LINCOLN        MOSUNNY   62  58  84 S17G28    29.44R
MACOMB         CLOUDY    45  45  99 W18       29.47R FOG
MATTOON        MOSUNNY   63  57  81 S17G25    29.51S
MT CARMEL AP   MOSUNNY   66  55  69 S23G30    29.56F
OLNEY-NOBLE AP CLOUDY    64  59  82 S14G25    29.55F
PARIS          PTSUNNY   64  57  80 S24G30    29.52F
PEORIA         CLOUDY    60  56  86 SW14      29.41F
PONTIAC        MOSUNNY   62  60  91 S17       29.43F
RANTOUL        CLOUDY    64  58  81 S18G28    29.47S
SPRINGFIELD    MOSUNNY   63  56  78 S17       29.44S
TAYLORVILLE    CLOUDY    61  56  83 S20G26    29.47S
$$

...REGIONAL REPORTS...


CITY           SKY/WX    TMP DP  RH WIND       PRES   REMARKS
CHICAGO O`HARE CLOUDY    39  37  92 N17       29.48F FOG     WCI  30
KANKAKEE       SUNNY     61  58  89 S18       29.45F
MOLINE         CLOUDY    41  37  86 NE10      29.44S FOG     WCI  35
MOUNT STERLING CLOUDY    47  46  98 W10       29.48R FOG
MOUNT VERNON   MOSUNNY   66  55  67 SW22G31   29.55S
PITTSFIELD     CLOUDY    52  50  92 W13G21    29.50R FOG
QUINCY         FOG       44  44 100 W17       29.50R VSB 1
ROCKFORD       DRIZZLE   38  36  92 NE13      29.51R FOG     WCI  30
$$


CITY           SKY/WX    TMP DP  RH WIND       PRES   REMARKS
BURLINGTON     FOG       41  40  96 NW9       29.47R VSB 1
CEDAR RAPIDS   LGT RAIN  33  33 100 N17       29.53R FOG     WCI  22
DES MOINES     LGT SNOW  33  31  92 N17G23    29.62R FOG     WCI  22
KIRKSVILLE     CLOUDY    39  38  96 NW12      29.55R WCI  32
OTTUMWA        CLOUDY    36  36 100 N16       29.54R FOG     WCI  26
ST LOUIS       CLOUDY    65  54  67 S10G18    29.49R
$$


CITY           SKY/WX    TMP DP  RH WIND       PRES   REMARKS
TERRE HAUTE    PTSUNNY   65  55  70 S20G29    29.54F
EVANSVILLE     MOSUNNY   68  55  63 S18G29    29.62S
INDIANAPOLIS   PTSUNNY   66  55  67 S17G28    29.57F
LAFAYETTE      MOSUNNY   65  56  72 S14G29    29.50F
MADISON        CLOUDY    32  30  92 NE20G26   29.56S FOG     WCI  20
MILWAUKEE      LGT RAIN  36  33  89 NE18G25   29.55S FOG     WCI  26
$$





USA.gov is the U.S. government's official web portal to all federal, state and local government web resources and services.